Simultaneous Nadir Overpasses (SNOs) Predictions

Prediction of SNOs between NOAA-19 and METOP-C Satellite Orbit:

Table of predicted SNOs for the next 14.0 days since TLE Epoch: 8/19/2023
Index Date (NOAA-19) Time (NOAA-19) Lat,Lon (NOAA-19) SZA (NOAA-19 ) Date (METOP-C) Time (METOP-C) Lat,Lon (METOP-C) SZA (METOP-C ) Distance(km) Time Diff (sec)
1 08/26/2023 22:47:34 80.86,-129.03 72.05 08/26/2023 22:48:39 80.86,-129.03 72.08 0.49 65
2 08/26/2023 23:38:38 -80.86, 38.07 107.96 08/26/2023 23:39:20 -80.85, 38.07 107.95 0.58 42
3 08/27/2023 00:29:33 80.86,-154.57 72.07 08/27/2023 00:30:01 80.86,-154.54 72.08 0.65 28
4 08/27/2023 01:20:36 -80.86, 12.90 107.90 08/27/2023 01:20:41 -80.86, 12.91 107.90 0.32 5
5 08/27/2023 02:11:31 80.87,-179.73 72.13 08/27/2023 02:11:22 80.87,-179.70 72.13 0.65 9
6 08/27/2023 03:02:34 -80.87, -12.26 107.84 08/27/2023 03:02:02 -80.87, -12.25 107.85 0.23 32
7 08/27/2023 03:53:29 80.87, 155.10 72.19 08/27/2023 03:52:43 80.88, 155.15 72.18 0.82 46



Historial Predications of SNOs between NOAA-19 and METOP-C
